User: anonymous   Login
Location: *
(49.1466°N, 1.6216°E)
Time: 05:20:40
(UTC+00:00)
Language:

Cosmos 2278 Rocket - Orbit

View from above orbital plane
View from above orbital plane
View from above satellite
View from above satellite

Ground track
Ground track

The orbit data is extracted from the following two-line orbital elements,

1 23088U 94023B   24060.58885271  .00000353  00000-0  20757-3 0  9990
2 23088  71.0000 182.8603 0004393 313.0123  47.0631 14.14816900541545
Epoch (UTC): 29 February 2024 14:07:56
Eccentricity: 0.0004393
inclination: 71.0000°
perigee height: 840 km
apogee height: 846 km
right ascension of ascending node: 182.8603°
argument of perigee: 313.0123°
revolutions per day: 14.14816900
mean anomaly at epoch: 47.0631°
orbit number at epoch: 54154

The dashed part of the orbit path shows where the satellite is in the earth's shadow,  

DLR